Location: Maccacari
(45.1333°N, 11.1333°E)
Time: 15:29:00
(UTC+00:00)

SR - Pass Details

Date: 24 June 2021
Orbit: 577 x 878 km, 66.7° (Epoch: 24 July)

Event Time Altitude Azimuth Distance (km) Brightness Sun altitude
Rises 00:22:21 0° 319° (NW) 3,255 ? -19.9°
Reaches altitude 10° 00:25:04 10° 310° (NW) 2,270 ? -19.8°
Maximum altitude 00:29:33 31° 250° (WSW) 1,238 ? -19.5°
Enters shadow 00:29:50 30° 243° (WSW) 1,240 ? -19.5°
